TimePDT,TemperatureF,Dew PointF,Humidity,Sea Level PressureIn,VisibilityMPH,Wind Direction,Wind SpeedMPH,Gust SpeedMPH,PrecipitationIn,Events,Conditions,WindDirDegrees,DateUTC
12:56 AM,75.0,36.0,24,29.72,10.0,NW,8.1,-,N/A,,Clear,310,2013-06-19 07:56:00
1:56 AM,73.0,43.0,34,29.71,10.0,NW,11.5,-,N/A,,Clear,310,2013-06-19 08:56:00
2:56 AM,71.1,44.1,38,29.72,10.0,NW,13.8,-,N/A,,Clear,310,2013-06-19 09:56:00
3:56 AM,70.0,43.0,38,29.74,10.0,NW,17.3,26.5,N/A,,Clear,310,2013-06-19 10:56:00
4:56 AM,66.9,42.1,40,29.75,10.0,NW,23.0,35.7,N/A,,Clear,310,2013-06-19 11:56:00
5:56 AM,66.9,41.0,39,29.76,9.0,NNW,11.5,24.2,N/A,,Clear,330,2013-06-19 12:56:00
6:56 AM,69.1,39.0,33,29.75,9.0,WNW,26.5,32.2,N/A,,Clear,290,2013-06-19 13:56:00
7:56 AM,72.0,37.9,29,29.80,10.0,NNW,13.8,-,N/A,,Partly Cloudy,330,2013-06-19 14:56:00
8:56 AM,75.9,34.0,22,29.79,10.0,WNW,26.5,34.5,N/A,,Partly Cloudy,290,2013-06-19 15:56:00
9:56 AM,80.1,27.0,14,29.79,10.0,NNW,9.2,-,N/A,,Clear,330,2013-06-19 16:56:00
10:56 AM,86.0,18.0,8,29.78,10.0,NW,17.3,28.8,N/A,,Clear,310,2013-06-19 17:56:00
11:56 AM,89.1,18.0,7,29.76,10.0,NW,15.0,-,N/A,,Clear,320,2013-06-19 18:56:00
12:56 PM,91.0,17.1,7,29.75,10.0,NE,8.1,-,N/A,,Clear,40,2013-06-19 19:56:00
1:56 PM,91.9,14.0,6,29.73,10.0,NE,5.8,-,N/A,,Clear,40,2013-06-19 20:56:00
2:56 PM,93.9,8.1,4,29.71,10.0,Calm,Calm,-,N/A,,Clear,0,2013-06-19 21:56:00
3:56 PM,96.1,8.1,4,29.69,10.0,Calm,Calm,-,N/A,,Clear,0,2013-06-19 22:56:00
4:56 PM,96.1,3.9,4,29.68,10.0,NNW,8.1,-,N/A,,Clear,340,2013-06-19 23:56:00
5:56 PM,95.0,6.1,4,29.68,10.0,NW,8.1,-,N/A,,Clear,310,2013-06-20 00:56:00
6:56 PM,93.9,9.0,4,29.68,10.0,NW,13.8,-,N/A,,Clear,310,2013-06-20 01:56:00
7:56 PM,89.1,12.9,6,29.69,10.0,WNW,21.9,25.3,N/A,,Clear,290,2013-06-20 02:56:00
8:56 PM,84.9,12.0,7,29.70,9.0,WNW,24.2,36.8,N/A,,Clear,290,2013-06-20 03:56:00
9:56 PM,81.0,16.0,9,29.73,9.0,NW,19.6,32.2,N/A,,Clear,310,2013-06-20 04:56:00
10:56 PM,77.0,19.0,11,29.75,10.0,NNW,13.8,23.0,N/A,,Clear,330,2013-06-20 05:56:00
11:56 PM,73.0,19.9,14,29.76,10.0,WNW,16.1,21.9,N/A,,Clear,300,2013-06-20 06:56:00